| time (UTC) | temp F | wind direction | speed MPH | gust MPH | rain 1hr in | rain 24hr in | rain mn in | humidity % | barometer mb |
| 20260903192758 | 86 | 149 | 5.0 | 11.0 | 0.00 | 0.04 | 0.04 | 65 | 1007.0 |
| 20260903192301 | 86 | 126 | 0.0 | 14.0 | 0.00 | 0.04 | 0.04 | 65 | 1006.8 |
| 20260903191259 | 85 | 151 | 12.0 | 12.0 | 0.00 | 0.04 | 0.04 | 67 | 1006.8 |
| 20260903190758 | 85 | 209 | 5.0 | 14.0 | 0.00 | 0.04 | 0.04 | 66 | 1006.8 |
| 20260903190258 | 83 | 146 | 6.0 | 6.0 | 0.00 | 0.04 | 0.04 | 69 | 1006.9 |
| 20260903185758 | 83 | 168 | 3.0 | 8.0 | 0.00 | 0.04 | 0.04 | 75 | 1006.8 |
| 20260903184758 | 81 | 112 | 0.0 | 6.0 | 0.04 | 0.04 | 0.04 | 88 | 1007.1 |
| 20260903184258 | 80 | 71 | 2.0 | 5.0 | 0.04 | 0.04 | 0.04 | 89 | 1007.1 |
| 20260903183759 | 79 | 236 | 0.0 | 5.0 | 0.04 | 0.04 | 0.04 | 91 | 1007.2 |
| 20260903183259 | 79 | 333 | 4.0 | 5.0 | 0.04 | 0.04 | 0.04 | 92 | 1007.2 |
| 20260903182259 | 78 | 7 | 0.0 | 3.0 | 0.04 | 0.04 | 0.04 | 93 | 1007.4 |
| 20260903181801 | 78 | 0.0 | 3.0 | 0.04 | 0.34 | 6.04 | 93 | 1007.5 | |
| 20260903181759 | 78 | 25 | 0.0 | 0.0 | 0.04 | 0.04 | 0.04 | 93 | 1007.5 |
| 20260903181259 | 78 | 30 | 3.0 | 4.0 | 0.04 | 0.04 | 0.04 | 92 | 1007.4 |
| 20260903180806 | 78 | 4 | 0.0 | 3.0 | 0.04 | 0.04 | 0.04 | 91 | 1007.5 |
| 20260903180259 | 78 | 78 | 0.0 | 0.0 | 0.04 | 0.04 | 0.04 | 88 | 1007.5 |
| 20260903175759 | 79 | 78 | 0.0 | 0.0 | 0.04 | 0.04 | 0.04 | 86 | 1007.4 |
| 20260903175200 | 79 | 78 | 0.0 | 0.0 | 0.02 | 0.02 | 0.02 | 83 | 1007.2 |
| 20260903175003 | 79 | 78 | 0.0 | 3.0 | 0.00 | 0.00 | 0.00 | 82 | 1007.3 |
| 20260903174458 | 80 | 71 | 0.0 | 0.0 | 0.00 | 0.00 | 0.00 | 81 | 1007.7 |
| 20260903173458 | 80 | 36 | 3.0 | 6.0 | 0.00 | 0.00 | 0.00 | 78 | 1007.7 |
| 20260903172959 | 80 | 156 | 0.0 | 4.0 | 0.00 | 0.00 | 0.00 | 78 | 1007.4 |
| 20260903172504 | 80 | 108 | 0.0 | 0.0 | 0.00 | 0.00 | 0.00 | 78 | 1007.4 |
| 20260903171958 | 80 | 108 | 0.0 | 8.0 | 0.00 | 0.00 | 0.00 | 78 | 1007.6 |
| 20260903171458 | 81 | 143 | 2.0 | 3.0 | 0.00 | 0.00 | 0.00 | 77 | 1007.9 |
| 20260903170459 | 81 | 112 | 6.0 | 7.0 | 0.00 | 0.00 | 0.00 | 77 | 1008.1 |
| 20260903170011 | 80 | 37 | 2.0 | 6.0 | 0.00 | 0.00 | 0.00 | 79 | 1008.3 |
| 20260903165500 | 80 | 180 | 2.0 | 4.0 | 0.00 | 0.00 | 0.00 | 81 | 1008.3 |
| 20260903165000 | 79 | 358 | 0.0 | 0.0 | 0.00 | 0.00 | 0.00 | 81 | 1008.4 |
| 20260903164501 | 79 | 358 | 0.0 | 1.0 | 0.00 | 0.00 | 0.00 | 80 | 1008.3 |
| 20260903163459 | 80 | 59 | 0.0 | 4.0 | 0.00 | 0.00 | 0.00 | 79 | 1008.2 |
| 20260903162004 | 80 | 99 | 0.0 | 5.0 | 0.00 | 0.00 | 0.00 | 80 | 1008.1 |
| 20260903161459 | 80 | 19 | 0.0 | 6.0 | 0.00 | 0.00 | 0.00 | 81 | 1008.1 |
| 20260903160959 | 79 | 189 | 3.0 | 4.0 | 0.00 | 0.00 | 0.00 | 81 | 1008.1 |
| 20260903160007 | 79 | 172 | 0.0 | 2.0 | 0.00 | 0.00 | 0.00 | 80 | 1008.2 |
| 20260903155500 | 79 | 172 | 0.0 | 3.0 | 0.00 | 0.00 | 0.00 | 80 | 1008.2 |
| 20260903154527 | 79 | 36 | 0.0 | 3.0 | 0.00 | 0.00 | 0.00 | 79 | 1008.2 |
| 20260903153458 | 79 | 144 | 0.0 | 6.0 | 0.00 | 0.00 | 0.00 | 80 | 1008.2 |
| 20260903152959 | 78 | 32 | 4.0 | 7.0 | 0.00 | 0.00 | 0.00 | 79 | 1008.1 |
| 20260903152501 | 78 | 12 | 0.0 | 6.0 | 0.00 | 0.00 | 0.00 | 80 | 1008.2 |
| 20260903150502 | 78 | 59 | 0.0 | 1.0 | 0.00 | 0.00 | 0.00 | 78 | 1008.3 |
| 20260903145959 | 78 | 59 | 0.0 | 0.0 | 0.00 | 0.00 | 0.00 | 78 | 1008.2 |
| 20260903144501 | 79 | 170 | 5.0 | 9.0 | 0.00 | 0.00 | 0.00 | 76 | 1008.1 |
| 20260903143958 | 80 | 30 | 2.0 | 5.0 | 0.00 | 0.00 | 0.00 | 75 | 1008.0 |
| 20260903142458 | 80 | 167 | 0.0 | 6.0 | 0.00 | 0.00 | 0.00 | 74 | 1008.0 |
| 20260903141458 | 79 | 139 | 0.0 | 4.0 | 0.00 | 0.00 | 0.00 | 77 | 1008.1 |
| 20260903140958 | 79 | 30 | 0.0 | 4.0 | 0.00 | 0.00 | 0.00 | 78 | 1008.1 |
| 20260903140458 | 79 | 94 | 0.0 | 4.0 | 0.00 | 0.00 | 0.00 | 78 | 1008.2 |
| 20260903135959 | 78 | 80 | 0.0 | 0.0 | 0.00 | 0.00 | 0.00 | 78 | 1008.3 |
| 20260903135041 | 77 | 37 | 0.0 | 1.0 | 0.00 | 0.00 | 0.00 | 80 | 1008.2 |
| 20260903134958 | 77 | 37 | 0.0 | 1.0 | 0.00 | 0.00 | 0.00 | 80 | 1008.2 |
| 20260903134458 | 77 | 37 | 0.0 | 5.0 | 0.00 | 0.00 | 0.00 | 80 | 1008.3 |
| 20260903132958 | 76 | 358 | 0.0 | 0.0 | 0.00 | 0.00 | 0.00 | 82 | 1008.3 |
| 20260903130015 | 75 | 151 | 0.0 | 0.0 | 0.00 | 0.00 | 0.00 | 86 | 1008.2 |
| 20260903124958 | 75 | 151 | 0.0 | 0.0 | 0.00 | 0.00 | 0.00 | 86 | 1008.0 |
| 20260903124501 | 75 | 151 | 0.0 | 9.0 | 0.00 | 0.00 | 0.00 | 86 | 1008.1 |
| 20260903122958 | 75 | 177 | 5.0 | 7.0 | 0.00 | 0.00 | 0.00 | 87 | 1007.6 |
| 20260903122503 | 75 | 133 | 2.0 | 6.0 | 0.00 | 0.00 | 0.00 | 87 | 1007.4 |
| 20260903122001 | 75 | 205 | 0.0 | 0.0 | 0.00 | 0.00 | 0.00 | 87 | 1007.4 |
| 20260903120958 | 75 | 18 | 0.0 | 5.0 | 0.00 | 0.00 | 0.00 | 87 | 1007.4 |
| 20260903120500 | 76 | 56 | 2.0 | 6.0 | 0.00 | 0.00 | 0.00 | 86 | 1007.3 |
| 20260903120000 | 76 | 101 | 0.0 | 6.0 | 0.00 | 0.00 | 0.00 | 85 | 1007.5 |
| 20260903114958 | 76 | 180 | 1.0 | 10.0 | 0.00 | 0.00 | 0.00 | 84 | 1007.6 |
| 20260903113958 | 76 | 226 | 5.0 | 11.0 | 0.00 | 0.00 | 0.00 | 85 | 1008.0 |
| 20260903113500 | 75 | 199 | 10.0 | 16.0 | 0.00 | 0.00 | 0.00 | 86 | 1008.2 |
| 20260903112958 | 75 | 201 | 6.0 | 15.0 | 0.00 | 0.00 | 0.00 | 90 | 1008.3 |
| 20260903111958 | 74 | 209 | 3.0 | 9.0 | 0.00 | 0.00 | 0.00 | 96 | 1008.4 |
| 20260903111500 | 74 | 167 | 0.0 | 8.0 | 0.00 | 0.00 | 0.00 | 98 | 1008.4 |
| 20260903110958 | 74 | 219 | 3.0 | 4.0 | 0.00 | 0.00 | 0.00 | 99 | 1008.4 |
| 20260903110458 | 73 | 203 | 0.0 | 0.0 | 0.00 | 0.00 | 0.00 | 99 | 1008.3 |
| 20260903110022 | 73 | 203 | 0.0 | 4.0 | 0.00 | 0.00 | 0.00 | 99 | 1008.1 |
| 20260903105505 | 73 | 21 | 0.0 | 2.0 | 0.00 | 0.00 | 0.00 | 99 | 1008.1 |
| 20260903104958 | 73 | 21 | 0.0 | 0.0 | 0.00 | 0.00 | 0.00 | 99 | 1008.2 |
| 20260903103458 | 73 | 21 | 0.0 | 0.0 | 0.00 | 0.00 | 0.00 | 99 | 1008.4 |
| 20260903102958 | 73 | 21 | 0.0 | 0.0 | 0.00 | 0.00 | 0.00 | 99 | 1008.6 |
| 20260903102459 | 73 | 21 | 0.0 | 0.0 | 0.00 | 0.00 | 0.00 | 99 | 1008.7 |
| 20260903102000 | 73 | 21 | 0.0 | 0.0 | 0.00 | 0.00 | 0.00 | 99 | 1008.3 |
| 20260903100458 | 73 | 21 | 0.0 | 0.0 | 0.00 | 0.00 | 0.00 | 99 | 1008.1 |
| 20260903095459 | 73 | 21 | 0.0 | 0.0 | 0.00 | 0.00 | 0.00 | 99 | 1008.1 |
| 20260903094500 | 73 | 21 | 0.0 | 0.0 | 0.00 | 0.00 | 0.00 | 99 | 1008.3 |
| 20260903093959 | 73 | 21 | 0.0 | 0.0 | 0.00 | 0.00 | 0.00 | 99 | 1008.3 |
| 20260903093501 | 73 | 21 | 0.0 | 0.0 | 0.00 | 0.00 | 0.00 | 98 | 1008.3 |
| 20260903092958 | 73 | 21 | 0.0 | 0.0 | 0.00 | 0.00 | 0.00 | 98 | 1008.2 |
| 20260903092500 | 73 | 21 | 0.0 | 0.0 | 0.00 | 0.00 | 0.00 | 98 | 1008.1 |
| 20260903091958 | 73 | 21 | 0.0 | 0.0 | 0.00 | 0.00 | 0.00 | 98 | 1008.1 |
| 20260903091458 | 73 | 21 | 0.0 | 0.0 | 0.00 | 0.00 | 0.00 | 98 | 1008.1 |
| 20260903090958 | 73 | 21 | 0.0 | 0.0 | 0.00 | 0.00 | 0.00 | 97 | 1008.1 |
| 20260903090458 | 74 | 21 | 0.0 | 0.0 | 0.00 | 0.00 | 0.00 | 97 | 1008.1 |
| 20260903085959 | 74 | 21 | 0.0 | 0.0 | 0.00 | 0.00 | 0.00 | 97 | 1008.0 |
| 20260903084958 | 74 | 21 | 0.0 | 2.0 | 0.00 | 0.00 | 0.00 | 97 | 1007.7 |
| 20260903084458 | 74 | 28 | 0.0 | 0.0 | 0.00 | 0.00 | 0.00 | 97 | 1007.7 |
| 20260903084044 | 74 | 28 | 0.0 | 0.0 | 0.00 | 0.00 | 0.00 | 97 | 1007.9 |
| 20260903084011 | 74 | 28 | 0.0 | 0.0 | 0.00 | 0.00 | 0.00 | 97 | 1007.9 |
| 20260903082958 | 74 | 42 | 0.0 | 0.0 | 0.00 | 0.00 | 0.00 | 97 | 1007.9 |
| 20260903081959 | 74 | 42 | 0.0 | 0.0 | 0.00 | 0.00 | 0.00 | 96 | 1008.2 |
| 20260903081458 | 74 | 42 | 0.0 | 0.0 | 0.00 | 0.00 | 0.00 | 96 | 1008.2 |
| 20260903080958 | 74 | 42 | 0.0 | 0.0 | 0.00 | 0.00 | 0.00 | 96 | 1008.2 |
| 20260903080458 | 74 | 42 | 0.0 | 0.0 | 0.00 | 0.00 | 0.00 | 96 | 1008.2 |
| 20260903080007 | 74 | 42 | 0.0 | 4.0 | 0.00 | 0.00 | 0.00 | 96 | 1008.2 |
| 20260903075458 | 74 | 97 | 0.0 | 0.0 | 0.00 | 0.00 | 0.00 | 96 | 1008.2 |
| 20260903074458 | 74 | 97 | 0.0 | 5.0 | 0.00 | 0.00 | 0.00 | 95 | 1008.2 |
| 20260903073958 | 74 | 71 | 0.0 | 4.0 | 0.00 | 0.00 | 0.00 | 95 | 1008.2 |
| 20260903073459 | 74 | 64 | 0.0 | 0.0 | 0.00 | 0.00 | 0.00 | 95 | 1008.3 |
| 20260903072958 | 74 | 64 | 0.0 | 0.0 | 0.00 | 0.00 | 0.00 | 95 | 1008.3 |
| 20260903072458 | 75 | 64 | 0.0 | 0.0 | 0.00 | 0.00 | 0.00 | 94 | 1008.4 |
| 20260903071958 | 74 | 64 | 0.0 | 0.0 | 0.00 | 0.00 | 0.00 | 94 | 1008.5 |
| 20260903071458 | 75 | 64 | 0.0 | 0.0 | 0.00 | 0.00 | 0.00 | 94 | 1008.5 |
| 20260903070958 | 75 | 64 | 0.0 | 0.0 | 0.00 | 0.00 | 0.00 | 94 | 1008.6 |
| 20260903070458 | 75 | 64 | 0.0 | 0.0 | 0.00 | 0.00 | 0.00 | 94 | 1008.5 |
| 20260903065959 | 75 | 64 | 0.0 | 4.0 | 0.00 | 0.00 | 0.00 | 94 | 1008.4 |
| 20260903065458 | 75 | 81 | 0.0 | 4.0 | 0.00 | 0.00 | 0.00 | 93 | 1008.4 |
| 20260903064958 | 75 | 82 | 0.0 | 0.0 | 0.00 | 0.00 | 0.00 | 93 | 1008.4 |
| 20260903064458 | 75 | 82 | 0.0 | 0.0 | 0.00 | 0.00 | 0.00 | 92 | 1008.5 |
| 20260903063501 | 75 | 82 | 0.0 | 0.0 | 0.00 | 0.00 | 0.00 | 92 | 1008.5 |
| 20260903062958 | 75 | 82 | 0.0 | 0.0 | 0.00 | 0.00 | 0.00 | 92 | 1008.5 |
| 20260903062458 | 75 | 82 | 0.0 | 0.0 | 0.00 | 0.00 | 0.00 | 91 | 1008.6 |
| 20260903061958 | 76 | 82 | 0.0 | 0.0 | 0.00 | 0.00 | 0.00 | 91 | 1008.6 |
| 20260903061458 | 76 | 82 | 0.0 | 0.0 | 0.00 | 0.00 | 0.00 | 91 | 1008.6 |
| 20260903060958 | 76 | 82 | 0.0 | 0.0 | 0.00 | 0.00 | 0.00 | 91 | 1008.6 |
| 20260903060458 | 76 | 82 | 0.0 | 0.0 | 0.00 | 0.00 | 0.00 | 91 | 1008.7 |
| 20260903060032 | 76 | 82 | 0.0 | 0.0 | 0.00 | 0.00 | 0.00 | 91 | 1008.6 |
| 20260903055959 | 76 | 82 | 0.0 | 0.0 | 0.00 | 0.00 | 0.00 | 91 | 1008.6 |
| 20260903055502 | 76 | 82 | 0.0 | 0.0 | 0.00 | 0.00 | 0.00 | 90 | 1008.6 |
| 20260903054958 | 76 | 82 | 0.0 | 0.0 | 0.00 | 0.00 | 0.00 | 89 | 1008.7 |
| 20260903054458 | 76 | 82 | 0.0 | 0.0 | 0.00 | 0.00 | 0.00 | 89 | 1008.6 |
| 20260903053458 | 76 | 82 | 0.0 | 0.0 | 0.00 | 0.00 | 0.00 | 89 | 1008.6 |
| 20260903052958 | 77 | 82 | 0.0 | 1.0 | 0.00 | 0.00 | 0.00 | 89 | 1008.6 |
| 20260903052458 | 77 | 82 | 1.0 | 4.0 | 0.00 | 0.00 | 0.00 | 88 | 1008.6 |
| 20260903051958 | 77 | 91 | 0.0 | 2.0 | 0.00 | 0.00 | 0.00 | 88 | 1008.6 |
| 20260903051458 | 77 | 91 | 0.0 | 3.0 | 0.00 | 0.00 | 0.00 | 87 | 1008.5 |
| 20260903050958 | 77 | 15 | 0.0 | 0.0 | 0.00 | 0.00 | 0.00 | 87 | 1008.6 |
| 20260903050000 | 77 | 15 | 0.0 | 0.0 | 0.00 | 0.00 | 0.00 | 86 | 1008.7 |
| 20260903045458 | 77 | 15 | 0.0 | 0.0 | 0.00 | 0.00 | 0.00 | 86 | 1008.6 |
| 20260903044958 | 77 | 15 | 0.0 | 0.0 | 0.00 | 0.00 | 0.00 | 86 | 1008.7 |
| 20260903044458 | 77 | 15 | 0.0 | 0.0 | 0.00 | 0.00 | 0.00 | 86 | 1008.7 |
| 20260903044039 | 77 | 15 | 0.0 | 3.0 | 0.00 | 0.00 | 0.00 | 85 | 1008.7 |
| 20260903044005 | 77 | 15 | 0.0 | 3.0 | 0.00 | 0.00 | 0.00 | 85 | 1008.7 |
| 20260903043458 | 77 | 39 | 0.0 | 2.0 | 0.00 | 0.00 | 0.00 | 85 | 1008.8 |
| 20260903042959 | 77 | 39 | 0.0 | 0.0 | 0.00 | 0.00 | 0.00 | 85 | 1008.8 |
| 20260903042458 | 77 | 39 | 0.0 | 0.0 | 0.00 | 0.00 | 0.00 | 85 | 1008.8 |
| 20260903041958 | 77 | 39 | 0.0 | 4.0 | 0.00 | 0.00 | 0.00 | 85 | 1008.9 |
| 20260903041459 | 78 | 175 | 0.0 | 0.0 | 0.00 | 0.00 | 0.00 | 84 | 1008.9 |
| 20260903040959 | 78 | 175 | 0.0 | 0.0 | 0.00 | 0.00 | 0.00 | 84 | 1008.9 |
| 20260903040458 | 78 | 175 | 0.0 | 0.0 | 0.00 | 0.00 | 0.00 | 84 | 1008.9 |
| 20260903040012 | 78 | 175 | 0.0 | 0.0 | 0.00 | 0.00 | 0.00 | 84 | 1008.9 |
| 20260903035458 | 78 | 175 | 0.0 | 0.0 | 0.00 | 0.00 | 0.00 | 84 | 1009.0 |
| 20260903034958 | 78 | 175 | 0.0 | 0.0 | 0.00 | 0.00 | 0.00 | 83 | 1008.9 |
| 20260903034701 | 78 | 175 | 0.0 | 0.0 | 0.00 | 0.00 | 0.00 | 83 | 1008.9 |
| 20260903034458 | 78 | 175 | 0.0 | 0.0 | 0.00 | 0.00 | 0.00 | 83 | 1008.9 |
| 20260903033959 | 78 | 175 | 0.0 | 0.0 | 0.00 | 0.00 | 0.00 | 82 | 1009.0 |
| 20260903033500 | 78 | 175 | 0.0 | 0.0 | 0.00 | 0.00 | 0.00 | 82 | 1009.0 |
| 20260903033000 | 78 | 175 | 0.0 | 0.0 | 0.00 | 0.00 | 0.00 | 81 | 1009.0 |
| 20260903031958 | 78 | 175 | 0.0 | 0.0 | 0.00 | 0.00 | 0.00 | 81 | 1008.9 |
| 20260903031459 | 79 | 175 | 0.0 | 0.0 | 0.00 | 0.00 | 0.00 | 81 | 1009.0 |
| 20260903030959 | 79 | 175 | 0.0 | 0.0 | 0.00 | 0.00 | 0.00 | 80 | 1009.0 |
| 20260903030458 | 79 | 175 | 0.0 | 0.0 | 0.00 | 0.00 | 0.00 | 80 | 1009.0 |
| 20260903025959 | 79 | 175 | 0.0 | 0.0 | 0.00 | 0.00 | 0.00 | 80 | 1009.0 |
| 20260903025457 | 79 | 175 | 0.0 | 0.0 | 0.00 | 0.00 | 0.00 | 79 | 1009.0 |
| 20260903024959 | 79 | 175 | 0.0 | 0.0 | 0.00 | 0.00 | 0.00 | 79 | 1008.9 |
| 20260903024458 | 80 | 175 | 0.0 | 0.0 | 0.00 | 0.00 | 0.00 | 78 | 1008.9 |
| 20260903023458 | 80 | 175 | 0.0 | 0.0 | 0.00 | 0.00 | 0.00 | 77 | 1009.0 |
| 20260903022957 | 80 | 175 | 0.0 | 0.0 | 0.00 | 0.00 | 0.00 | 77 | 1008.9 |
| 20260903022458 | 80 | 175 | 0.0 | 0.0 | 0.00 | 0.00 | 0.00 | 76 | 1008.9 |
| 20260903021958 | 80 | 175 | 0.0 | 0.0 | 0.00 | 0.00 | 0.00 | 76 | 1008.8 |
| 20260903021458 | 80 | 175 | 0.0 | 0.0 | 0.00 | 0.00 | 0.00 | 75 | 1008.8 |
| 20260903020958 | 81 | 175 | 0.0 | 0.0 | 0.00 | 0.00 | 0.00 | 75 | 1008.8 |
| 20260903020458 | 81 | 175 | 0.0 | 0.0 | 0.00 | 0.00 | 0.00 | 75 | 1008.8 |
| 20260903015958 | 81 | 175 | 0.0 | 0.0 | 0.00 | 0.00 | 0.00 | 75 | 1008.8 |
| 20260903015457 | 81 | 175 | 0.0 | 0.0 | 0.00 | 0.00 | 0.00 | 75 | 1008.8 |
| 20260903014958 | 81 | 175 | 0.0 | 0.0 | 0.00 | 0.00 | 0.00 | 74 | 1008.7 |
| 20260903014459 | 81 | 175 | 0.0 | 0.0 | 0.00 | 0.00 | 0.00 | 74 | 1008.7 |
| 20260903013958 | 81 | 175 | 0.0 | 0.0 | 0.00 | 0.00 | 0.00 | 74 | 1008.6 |
| 20260903013459 | 81 | 175 | 0.0 | 0.0 | 0.00 | 0.00 | 0.00 | 73 | 1008.6 |
| 20260903012959 | 81 | 175 | 0.0 | 0.0 | 0.00 | 0.00 | 0.00 | 73 | 1008.5 |
| 20260903012641 | 81 | 175 | 0.0 | 0.0 | 0.00 | 0.00 | 0.00 | 72 | 1008.5 |
| 20260903012458 | 81 | 175 | 0.0 | 0.0 | 0.00 | 0.00 | 0.00 | 72 | 1008.5 |
| 20260903011957 | 82 | 175 | 0.0 | 0.0 | 0.00 | 0.00 | 0.00 | 72 | 1008.5 |
| 20260903011458 | 82 | 175 | 0.0 | 0.0 | 0.00 | 0.00 | 0.00 | 71 | 1008.4 |
| 20260903010457 | 83 | 175 | 0.0 | 0.0 | 0.00 | 0.00 | 0.00 | 69 | 1008.4 |
| 20260903005959 | 83 | 175 | 0.0 | 0.0 | 0.00 | 0.00 | 0.00 | 69 | 1008.3 |
| 20260903005458 | 83 | 175 | 0.0 | 0.0 | 0.00 | 0.00 | 0.00 | 68 | 1008.2 |
| 20260903004959 | 83 | 175 | 0.0 | 0.0 | 0.00 | 0.00 | 0.00 | 68 | 1008.2 |
| 20260903004459 | 83 | 175 | 0.0 | 0.0 | 0.00 | 0.00 | 0.00 | 67 | 1008.3 |
| 20260903003957 | 84 | 175 | 0.0 | 0.0 | 0.00 | 0.00 | 0.00 | 67 | 1008.3 |
| 20260903003457 | 84 | 175 | 0.0 | 0.0 | 0.00 | 0.00 | 0.00 | 67 | 1008.2 |
| 20260903003238 | 84 | 175 | 0.0 | 0.0 | 0.00 | 0.00 | 0.00 | 66 | 1008.3 |
| 20260903002958 | 84 | 175 | 0.0 | 0.0 | 0.00 | 0.00 | 0.00 | 66 | 1008.3 |
| 20260903002457 | 84 | 175 | 0.0 | 0.0 | 0.00 | 0.00 | 0.00 | 66 | 1008.3 |
| 20260903001957 | 84 | 175 | 0.0 | 0.0 | 0.00 | 0.00 | 0.00 | 65 | 1008.3 |
| 20260903001458 | 84 | 175 | 0.0 | 0.0 | 0.00 | 0.00 | 0.00 | 65 | 1008.3 |
| 20260903000959 | 84 | 175 | 0.0 | 0.0 | 0.00 | 0.00 | 0.00 | 65 | 1008.3 |
| 20260903000457 | 85 | 175 | 0.0 | 0.0 | 0.00 | 0.00 | 0.00 | 64 | 1008.2 |
| 20260902235457 | 85 | 175 | 0.0 | 0.0 | 0.00 | 0.00 | 0.00 | 64 | 1008.3 |
| 20260902234957 | 85 | 175 | 0.0 | 0.0 | 0.00 | 0.00 | 0.00 | 64 | 1008.3 |
| 20260902234501 | 85 | 175 | 0.0 | 0.0 | 0.00 | 0.00 | 0.00 | 63 | 1008.2 |
| 20260902233457 | 85 | 170 | 0.0 | 5.0 | 0.00 | 0.00 | 0.00 | 63 | 1008.3 |
| 20260902232958 | 86 | 167 | 5.0 | 7.0 | 0.00 | 0.00 | 0.00 | 63 | 1008.3 |
| 20260902231958 | 86 | 230 | 0.0 | 0.0 | 0.00 | 0.00 | 0.00 | 63 | 1008.4 |
| 20260902231458 | 86 | 230 | 0.0 | 0.0 | 0.00 | 0.00 | 0.00 | 63 | 1008.4 |
| 20260902231005 | 86 | 230 | 0.0 | 5.0 | 0.00 | 0.00 | 0.00 | 63 | 1008.4 |
| 20260902230500 | 86 | 219 | 0.0 | 2.0 | 0.00 | 0.00 | 0.00 | 63 | 1008.4 |
| 20260902225458 | 86 | 219 | 0.0 | 6.0 | 0.00 | 0.00 | 0.00 | 61 | 1008.5 |
| 20260902224959 | 85 | 174 | 0.0 | 5.0 | 0.00 | 0.00 | 0.00 | 61 | 1008.4 |
| 20260902224501 | 85 | 219 | 0.0 | 7.0 | 0.00 | 0.00 | 0.00 | 62 | 1008.5 |
| 20260902223457 | 86 | 146 | 0.0 | 6.0 | 0.00 | 0.00 | 0.00 | 62 | 1008.5 |
| 20260902221958 | 86 | 201 | 5.0 | 6.0 | 0.00 | 0.00 | 0.00 | 60 | 1008.4 |
| 20260902221458 | 87 | 182 | 0.0 | 5.0 | 0.00 | 0.00 | 0.00 | 61 | 1008.4 |
| 20260902215958 | 86 | 209 | 0.0 | 7.0 | 0.00 | 0.00 | 0.00 | 60 | 1008.4 |
| 20260902214957 | 86 | 209 | 7.0 | 7.0 | 0.00 | 0.00 | 0.00 | 60 | 1008.4 |
| 20260902214458 | 86 | 196 | 0.0 | 6.0 | 0.00 | 0.00 | 0.00 | 59 | 1008.5 |
| 20260902213957 | 86 | 182 | 4.0 | 7.0 | 0.00 | 0.00 | 0.00 | 59 | 1008.5 |
| 20260902213457 | 86 | 189 | 3.0 | 8.0 | 0.00 | 0.00 | 0.00 | 60 | 1008.6 |
| 20260902211957 | 86 | 189 | 6.0 | 6.0 | 0.00 | 0.00 | 0.00 | 61 | 1008.7 |
| 20260902211459 | 85 | 14 | 0.0 | 3.0 | 0.00 | 0.00 | 0.00 | 64 | 1008.7 |
| 20260902210458 | 84 | 84 | 0.0 | 0.0 | 0.00 | 0.00 | 0.00 | 63 | 1008.8 |
| 20260902205457 | 84 | 15 | 0.0 | 5.0 | 0.00 | 0.00 | 0.00 | 64 | 1008.8 |
| 20260902204957 | 84 | 57 | 0.0 | 6.0 | 0.00 | 0.00 | 0.00 | 64 | 1008.8 |
| 20260902204459 | 84 | 12 | 0.0 | 5.0 | 0.00 | 0.00 | 0.00 | 65 | 1008.8 |
| 20260902203958 | 84 | 70 | 0.0 | 5.0 | 0.00 | 0.00 | 0.00 | 64 | 1008.8 |
| 20260902203458 | 83 | 73 | 5.0 | 8.0 | 0.00 | 0.00 | 0.00 | 64 | 1008.7 |
| 20260902203002 | 83 | 15 | 0.0 | 7.0 | 0.00 | 0.00 | 0.00 | 65 | 1008.7 |
| 20260902202505 | 84 | 18 | 0.0 | 8.0 | 0.00 | 0.00 | 0.00 | 66 | 1008.8 |
| 20260902201958 | 84 | 122 | 6.0 | 9.0 | 0.00 | 0.00 | 0.00 | 65 | 1008.8 |
| 20260902201457 | 83 | 37 | 0.0 | 7.0 | 0.00 | 0.00 | 0.00 | 65 | 1008.9 |
| 20260902200957 | 83 | 80 | 4.0 | 7.0 | 0.00 | 0.00 | 0.00 | 65 | 1009.0 |
| 20260902200458 | 84 | 26 | 0.0 | 11.0 | 0.00 | 0.00 | 0.00 | 65 | 1009.0 |
| 20260902195958 | 84 | 23 | 0.0 | 6.0 | 0.00 | 0.00 | 0.00 | 64 | 1009.1 |
| 20260902195457 | 83 | 71 | 0.0 | 4.0 | 0.00 | 0.00 | 0.00 | 64 | 1009.3 |
| 20260902194957 | 83 | 63 | 0.0 | 7.0 | 0.00 | 0.00 | 0.00 | 65 | 1009.4 |
| 20260902194500 | 83 | 19 | 2.0 | 9.0 | 0.00 | 0.00 | 0.00 | 66 | 1009.3 |
| 20260902193958 | 83 | 274 | 1.0 | 7.0 | 0.00 | 0.00 | 0.00 | 66 | 1009.4 |
| 20260902193500 | 83 | 2 | 8.0 | 8.0 | 0.00 | 0.00 | 0.00 | 67 | 1009.5 |